Weather in Ust-Muya

Russia / Republic of Buryatia     56°24′49″N   115°37′39″E
temp.,
°C
wind,
m/s
gust,
m/s
humid.,
%
clouds,
%
prec.,
mm/h
press.,
hPa
HPBL,
m
8 may, sat
sat823:00+2nnw237998 0.0 101272
02:00+1nnw2279100 0.0 101352
05:00+2nw1176100 0.0 101244
08:00+6wnw1358100 0.0 1011827
11:00+8n3341100 0.3 10101784
14:00+9n4336100 0.3 10091911
17:00+8n3338100 0.0 10091434
20:00+5n225798 0.0 101032
9 may, sun
sun923:00+2nne226894 0.0 101216
02:00+1nne116831 0.0 101110
05:000nne11685 0.0 101211
08:00+6sw11495 0.0 1011595
11:00+10s11355 0.0 10091656
14:00+12ene112826 0.1 10082237
17:00+11ne433363 0.0 10071934
20:00+6nne23499 0.0 101054
10 may, mon
mon1023:00+3nne225811 0.0 101113
02:00+2ne115892 0.0 101210
05:00+2nne115885 0.0 101211
08:00+7ssw114587 0.0 1011569
11:00+11sse113498 0.0 10101600
14:00+13nne2228100 0.0 10082331
17:00+12nne3229100 0.0 10081433
20:00+8nne234597 0.0 101046
11 may, tue
tue1123:00+5nne225540 0.0 101116
02:00+3ne116075 0.0 101210
05:00+3n11645 0.0 101212
08:00+8sw11475 0.0 1010721
11:00+13nnw123255 0.0 10082109
14:00+13nne432881 0.0 10062438
17:00+13nne43309 0.0 10062072
20:00+8nne224614 0.0 100715
12 may, wed
wed1223:00+5n22705 0.0 100832
02:00+3n228016 0.0 100819
05:00+3nne117684 0.0 100828
08:00+7wnw125698 0.0 10071109
11:00+8nw3450100 0.5 10061643
14:00+9nnw453894 0.8 10052014
17:00+9nnw453696 0.0 10061759
20:00+5nnw355222 0.0 1008108